sat.trackr.live / text

‹ back to catalog

STARLINK-33849

NORAD 63654 · 2025-083W

PAYLOAD ACTIVE UNKNOWN

§ Identity

Operator
Country
US
Launch date
2025-04-25
Launch site
AFETR
Launch vehicle
Mass (kg)
RCS (m²)

Purposes: comms

External: N2YO · Heavens-Above · Gunter

§ Orbital elements

Epoch: 2026-05-25T02:51:03.234816Z

Period
94.27 min
Inclination
43.0018°
Eccentricity
0.0001109
Mean motion
15.27573487 rev/d
Perigee alt
482.3 km
Apogee alt
483.8 km
Semi-major
6,861.2 km
B*
6.5545e-4
RAAN
293.7515°
Arg perigee
271.0951°
Mean anomaly
88.9773°
Rev number
6,175

§ Raw data

STARLINK-338491 63654U 25083W   26145.11878744  .00017814  00000+0  65545-3 0  99982 63654  43.0018 293.7515 0001109 271.0951  88.9773 15.27573487 61750

JSON: /api/v1/satellites/63654 · /tle

For live sub-satellite position, see the globe view (requires WebGL).

§ Visibility from observer

Set your observer location to see the next 7 days of passes ≥ 10°. The values pass through the URL so the page stays shareable.

No JS? Fill the form by hand. The geolocation button needs JavaScript.